Weather History for LIMU - September, 2013

Change the Weather History Date:

Friday, September 20, 2013

  Actual Average Record
Temperature  
Mean Temperature 71 °F -  
Max Temperature 78 °F 68 °F 82 °F (2011)
Min Temperature 64 °F 59 °F 53 °F (1996)
Cooling Degree Days 6    
Growing Degree Days 21 (Base 50)    
Moisture  
Dew Point 60 °F    
Average Humidity 72    
Maximum Humidity 88    
Minimum Humidity 36    
Precipitation  
Precipitation 0.00 in 0.11 in - ()
Sea Level Pressure  
Sea Level Pressure 29.97 in    
Wind  
Wind Speed 5 mph ()    
Max Wind Speed 13 mph    
Max Gust Speed -    
Visibility 12.0 miles    
Events      
Averages and records for this station are not official NWS values.
T = Trace of Precipitation, MM = Missing Value Source: Averaged Metar Reports

Daily Weather History Graph

Daily Weather History Graph

Search for Another Location

Airport or City:

Trip Planner

Search our weather history database for the weather conditions in past years. The results will help you decide how hot, cold, wet, or windy it might be!

Date:

Astronomy

Sep. 20, 2013 Rise Set
Actual Time 7:12 AM CEST 7:28 PM CEST
Civil Twilight 6:43 AM CEST 7:57 PM CEST
Nautical Twilight 6:09 AM CEST 8:31 PM CEST
Astronomical Twilight 5:34 AM CEST 9:05 PM CEST
Moon 7:48 PM CEST (9/20) 8:12 AM CEST (9/20)
Length of Visible Light 13h 13m
Length of Day
12h 16m
Full, 99% of the Moon is Illuminated
Sep 20
Full
Sep 27
Last Quarter
Oct 5
New
Oct 12
First Quarter
Oct 19
Full

Hourly Weather History & Observations

Time (CEST) Temp. Dew Point Humidity Pressure Visibility Wind Dir Wind Speed Gust Speed Precip Events Conditions
12:55 AM 66.2 °F 62.6 °F 88% 29.86 in - South 3.5 mph - N/A   Clear
1:55 AM 66.2 °F 62.6 °F 88% 29.89 in - SSE 3.5 mph - N/A   Clear
2:00 AM 67 °F 62 °F 79% 29.88 in 12 mi SSE 3.5 mph - -  
2:55 AM 66.2 °F 60.8 °F 83% 29.92 in - SW 4.6 mph - N/A   Clear
3:55 AM 64.4 °F 60.8 °F 88% 29.92 in - SW 4.6 mph - N/A   Clear
4:55 AM 64.4 °F 60.8 °F 88% 29.89 in - NE 1.2 mph - N/A   Clear
5:55 AM 64.4 °F 60.8 °F 88% 29.89 in - South 6.9 mph - N/A   Clear
6:55 AM 64.4 °F 59.0 °F 83% 29.92 in - WSW 3.5 mph - N/A   Clear
7:55 AM 66.2 °F 59.0 °F 78% 29.92 in - South 2.3 mph - N/A   Clear
8:00 AM 65 °F 60 °F 78% 29.91 in 12 mi South 2.3 mph - -   Scattered Clouds
8:55 AM 68.0 °F 59.0 °F 73% 29.95 in - NNE 6.9 mph - N/A   Clear
9:55 AM 71.6 °F 66.2 °F 83% 29.95 in - NNE 5.8 mph - N/A   Clear
10:55 AM 73.4 °F 57.2 °F 57% 29.98 in - East 5.8 mph - N/A   Clear
11:55 AM 75.2 °F 53.6 °F 47% 29.98 in - ENE 4.6 mph - N/A   Clear
12:55 PM 78.8 °F 50.0 °F 36% 30.01 in - East 9.2 mph - N/A   Clear
1:55 PM 78.8 °F 57.2 °F 47% 30.01 in - East 6.9 mph - N/A   Clear
2:00 PM 78 °F 57 °F 38% 29.98 in 12 mi East 6.9 mph - -   Clear
2:55 PM 75.2 °F 60.8 °F 61% 30.01 in - SSW 10.4 mph - N/A   Clear
3:55 PM 75.2 °F 60.8 °F 61% 30.01 in - SSW 11.5 mph - N/A   Clear
4:55 PM 73.4 °F 62.6 °F 69% 30.01 in - SSW 10.4 mph - N/A   Clear
5:55 PM 71.6 °F 64.4 °F 78% 30.01 in - SW 11.5 mph - N/A   Clear
6:55 PM 69.8 °F 64.4 °F 83% 30.01 in - SW 12.7 mph - N/A   Clear
7:55 PM 68.0 °F 62.6 °F 83% 30.01 in - SW 11.5 mph - N/A   Clear
8:00 PM 68 °F 63 °F 79% 30.00 in 12 mi SW 11.5 mph - -   Clear
8:55 PM 69.8 °F 55.4 °F 60% 30.04 in - WSW 5.8 mph - N/A   Clear
9:55 PM 69.8 °F 57.2 °F 64% 30.04 in - North 3.5 mph - N/A   Clear
10:55 PM 68.0 °F 60.8 °F 78% 30.04 in - NNE 4.6 mph - N/A   Clear
11:55 PM 68.0 °F 60.8 °F 78% 30.06 in - East 4.6 mph - N/A   Clear